Private Wetterstation Sandau
Wetterdaten: Woche 10.12.12 - 16.12.12 (KW50)
Datum Zeit Temp. A. Feuchte A. Luftdruck Regen Wind Richtung Taupunkt Windchill
10.12.2012 00:00 0,7 C 92 % 1000,0 hPa 0,0 l/m 5,2 km/h (1 Bft) S -0,4 C -0,5 C
10.12.2012 01:00 0,8 C 93 % 999,5 hPa 0,0 l/m 8,3 km/h (2 Bft) W-SW -0,3 C -1,8 C
10.12.2012 02:00 1,0 C 93 % 999,3 hPa 0,0 l/m 6,9 km/h (2 Bft) SW 0,0 C -1,0 C
10.12.2012 03:00 1,3 C 93 % 999,1 hPa 0,0 l/m 7,7 km/h (2 Bft) SW 0,3 C -0,7 C
10.12.2012 04:00 1,2 C 93 % 999,2 hPa 0,0 l/m 3,6 km/h (1 Bft) S-SW 0,2 C 0,8 C
10.12.2012 05:00 1,1 C 93 % 999,3 hPa 0,0 l/m 1,3 km/h (1 Bft) S-SW 0,1 C 0,9 C
10.12.2012 06:00 0,9 C 93 % 999,6 hPa 0,0 l/m 0,1 km/h (0 Bft) SO -0,1 C 0,9 C
10.12.2012 07:00 0,9 C 93 % 1000,3 hPa 0,0 l/m 0,6 km/h (0 Bft) N -0,1 C 0,9 C
10.12.2012 08:00 0,8 C 93 % 1001,3 hPa 0,0 l/m 1,6 km/h (1 Bft) N-NO -0,2 C 0,6 C
10.12.2012 09:00 0,6 C 94 % 1002,4 hPa 0,0 l/m 4,3 km/h (1 Bft) N-NO -0,2 C 0,2 C
10.12.2012 10:00 0,6 C 94 % 1003,5 hPa 0,0 l/m 3,5 km/h (1 Bft) NO -0,3 C 0,3 C
10.12.2012 11:00 0,8 C 94 % 1004,5 hPa 0,0 l/m 4,7 km/h (1 Bft) N-NO -0,1 C -0,1 C
10.12.2012 12:00 1,0 C 94 % 1005,3 hPa 0,0 l/m 5,8 km/h (2 Bft) N-NO 0,2 C -0,3 C
10.12.2012 13:00 1,0 C 94 % 1006,1 hPa 0,0 l/m 6,3 km/h (2 Bft) N-NO 0,1 C -0,6 C
10.12.2012 14:00 0,6 C 93 % 1007,1 hPa 0,0 l/m 5,5 km/h (1 Bft) NO -0,4 C -0,9 C
10.12.2012 15:00 0,1 C 92 % 1008,1 hPa 0,0 l/m 0,0 km/h (0 Bft) N -1,1 C 0,1 C
10.12.2012 16:00 -0,3 C 92 % 1009,2 hPa 0,0 l/m 0,0 km/h (0 Bft) N -1,5 C -0,3 C
10.12.2012 17:00 -0,7 C 91 % 1010,3 hPa 0,0 l/m 0,0 km/h (0 Bft) N -1,9 C -0,7 C
10.12.2012 18:00 -1,0 C 91 % 1011,3 hPa 0,0 l/m 0,0 km/h (0 Bft) N -2,4 C -1,0 C
10.12.2012 19:00 -1,5 C 90 % 1012,4 hPa 0,0 l/m 0,0 km/h (0 Bft) N -2,9 C -1,5 C
10.12.2012 20:00 -1,9 C 90 % 1013,6 hPa 0,0 l/m 0,0 km/h (0 Bft) N -3,3 C -1,9 C
10.12.2012 21:00 -2,1 C 89 % 1014,6 hPa 0,0 l/m 0,0 km/h (0 Bft) N -3,7 C -2,1 C
10.12.2012 22:00 -2,4 C 88 % 1015,5 hPa 0,0 l/m 0,0 km/h (0 Bft) N -4,1 C -2,4 C
10.12.2012 23:00 -2,9 C 88 % 1016,4 hPa 0,0 l/m 0,0 km/h (0 Bft) N -4,6 C -2,9 C
11.12.2012 00:00 -3,1 C 88 % 1016,9 hPa 0,0 l/m 0,0 km/h (0 Bft) N -4,7 C -3,1 C
11.12.2012 01:00 -2,9 C 89 % 1017,2 hPa 0,0 l/m 0,0 km/h (0 Bft) N -4,4 C -2,9 C
11.12.2012 02:00 -2,5 C 90 % 1017,7 hPa 0,0 l/m 0,0 km/h (0 Bft) N -3,9 C -2,5 C
11.12.2012 03:00 -1,8 C 91 % 1018,0 hPa 0,0 l/m 0,0 km/h (0 Bft) N -3,1 C -1,8 C
11.12.2012 04:00 -1,9 C 91 % 1018,3 hPa 0,0 l/m 0,0 km/h (0 Bft) N -3,1 C -1,9 C
11.12.2012 05:00 -2,0 C 91 % 1018,6 hPa 0,0 l/m 0,0 km/h (0 Bft) N -3,3 C -2,0 C
11.12.2012 06:00 -2,2 C 90 % 1019,1 hPa 0,0 l/m 0,0 km/h (0 Bft) N -3,6 C -2,2 C
11.12.2012 07:00 -2,3 C 89 % 1019,5 hPa 0,0 l/m 0,0 km/h (0 Bft) N -3,8 C -2,3 C
11.12.2012 08:00 -2,3 C 88 % 1019,9 hPa 0,0 l/m 0,0 km/h (0 Bft) N -4,0 C -2,3 C
11.12.2012 09:00 -1,9 C 87 % 1020,2 hPa 0,0 l/m 0,0 km/h (0 Bft) N -3,8 C -1,9 C
11.12.2012 10:00 -1,3 C 85 % 1020,4 hPa 0,0 l/m 6,1 km/h (2 Bft) N-NO -3,5 C -3,3 C
11.12.2012 11:00 -0,7 C 85 % 1020,3 hPa 0,0 l/m 6,8 km/h (2 Bft) N-NO -2,8 C -3,0 C
11.12.2012 12:00 -0,7 C 85 % 1020,3 hPa 0,0 l/m 7,5 km/h (2 Bft) N-NO -2,9 C -3,0 C
11.12.2012 13:00 -0,4 C 84 % 1020,3 hPa 0,0 l/m 6,2 km/h (2 Bft) N-NO -2,7 C -2,4 C
11.12.2012 14:00 -0,6 C 83 % 1020,4 hPa 0,0 l/m 10,8 km/h (2 Bft) N-NO -3,2 C -3,7 C
11.12.2012 15:00 -1,2 C 85 % 1020,9 hPa 0,0 l/m 11,2 km/h (2 Bft) N-NO -3,5 C -5,0 C
11.12.2012 16:00 -1,8 C 87 % 1020,9 hPa 0,0 l/m 10,4 km/h (2 Bft) N-NO -3,7 C -5,0 C
11.12.2012 17:00 -1,9 C 87 % 1021,1 hPa 0,0 l/m 7,7 km/h (2 Bft) N-NO -3,9 C -4,6 C
11.12.2012 18:00 -2,1 C 86 % 1021,1 hPa 0,0 l/m 9,1 km/h (2 Bft) N-NO -4,2 C -5,3 C
11.12.2012 19:00 -2,2 C 85 % 1021,2 hPa 0,0 l/m 9,3 km/h (2 Bft) N-NO -4,3 C -5,6 C
11.12.2012 20:00 -2,2 C 84 % 1021,5 hPa 0,0 l/m 8,9 km/h (2 Bft) N-NO -4,5 C -5,4 C
11.12.2012 21:00 -2,4 C 83 % 1021,5 hPa 0,0 l/m 11,4 km/h (2 Bft) N-NO -4,8 C -6,3 C
11.12.2012 22:00 -2,5 C 82 % 1021,8 hPa 0,0 l/m 9,4 km/h (2 Bft) N-NO -5,2 C -6,0 C
11.12.2012 23:00 -2,8 C 82 % 1022,0 hPa 0,0 l/m 7,6 km/h (2 Bft) N-NO -5,5 C -5,6 C
12.12.2012 00:00 -3,1 C 82 % 1021,8 hPa 0,0 l/m 9,3 km/h (2 Bft) N-NO -5,8 C -6,7 C
12.12.2012 01:00 -3,4 C 82 % 1022,0 hPa 0,0 l/m 6,5 km/h (2 Bft) N-NO -6,0 C -5,8 C
12.12.2012 02:00 -3,9 C 83 % 1022,1 hPa 0,0 l/m 5,9 km/h (2 Bft) N-NO -6,4 C -5,8 C
12.12.2012 03:00 -5,1 C 84 % 1021,9 hPa 0,0 l/m 3,2 km/h (1 Bft) N-NO -7,4 C -5,3 C
12.12.2012 04:00 -6,2 C 86 % 1021,7 hPa 0,0 l/m 3,8 km/h (1 Bft) N-NO -8,1 C -7,5 C
12.12.2012 05:00 -6,5 C 88 % 1021,4 hPa 0,0 l/m 3,3 km/h (1 Bft) N-NO -8,2 C -7,0 C
12.12.2012 06:00 -5,7 C 89 % 1021,0 hPa 0,0 l/m 2,2 km/h (1 Bft) N-NO -7,2 C -5,9 C
12.12.2012 07:00 -5,1 C 90 % 1021,1 hPa 0,0 l/m 1,9 km/h (1 Bft) N-NO -6,5 C -5,3 C
12.12.2012 08:00 -4,9 C 90 % 1021,2 hPa 0,0 l/m 2,2 km/h (1 Bft) N-NO -6,2 C -5,1 C
12.12.2012 09:00 -4,6 C 90 % 1021,5 hPa 0,0 l/m 1,8 km/h (1 Bft) N-NO -5,9 C -5,0 C
12.12.2012 10:00 -4,2 C 90 % 1021,6 hPa 0,0 l/m 4,1 km/h (1 Bft) N-NO -5,6 C -5,4 C
12.12.2012 11:00 -3,9 C 88 % 1021,3 hPa 0,0 l/m 4,9 km/h (1 Bft) N-NO -5,5 C -5,4 C
12.12.2012 12:00 -3,6 C 88 % 1020,9 hPa 0,0 l/m 4,1 km/h (1 Bft) N-NO -5,2 C -4,7 C
12.12.2012 13:00 -3,2 C 87 % 1020,4 hPa 0,0 l/m 4,9 km/h (1 Bft) N-NO -5,0 C -4,7 C
12.12.2012 14:00 -3,3 C 88 % 1020,2 hPa 0,0 l/m 4,2 km/h (1 Bft) N-NO -5,0 C -4,5 C
12.12.2012 15:00 -3,2 C 88 % 1020,1 hPa 0,0 l/m 3,0 km/h (1 Bft) N-NO -4,9 C -3,6 C
12.12.2012 16:00 -3,1 C 88 % 1020,1 hPa 0,0 l/m 3,9 km/h (1 Bft) N-NO -4,8 C -3,8 C
12.12.2012 17:00 -3,1 C 89 % 1020,0 hPa 0,0 l/m 3,6 km/h (1 Bft) N-NO -4,6 C -3,7 C
12.12.2012 18:00 -3,1 C 89 % 1019,6 hPa 0,0 l/m 3,2 km/h (1 Bft) N-NO -4,7 C -3,6 C
12.12.2012 19:00 -3,1 C 89 % 1019,4 hPa 0,0 l/m 4,4 km/h (1 Bft) N-NO -4,7 C -3,9 C
12.12.2012 20:00 -3,1 C 90 % 1019,2 hPa 0,0 l/m 4,1 km/h (1 Bft) N-NO -4,5 C -4,0 C
12.12.2012 21:00 -3,1 C 90 % 1019,2 hPa 0,0 l/m 4,7 km/h (1 Bft) N-NO -4,5 C -4,4 C
12.12.2012 22:00 -2,9 C 90 % 1019,3 hPa 0,0 l/m 6,2 km/h (2 Bft) N-NO -4,3 C -5,0 C
12.12.2012 23:00 -2,8 C 90 % 1019,1 hPa 0,0 l/m 4,0 km/h (1 Bft) N-NO -4,2 C -3,6 C
13.12.2012 00:00 -2,7 C 90 % 1018,7 hPa 0,0 l/m 3,7 km/h (1 Bft) N-NO -4,1 C -3,6 C
13.12.2012 01:00 -2,6 C 90 % 1018,2 hPa 0,0 l/m 3,9 km/h (1 Bft) N-NO -4,0 C -3,4 C
13.12.2012 02:00 -3,0 C 90 % 1018,1 hPa 0,0 l/m 4,7 km/h (1 Bft) N-NO -4,4 C -4,3 C
13.12.2012 03:00 -3,0 C 91 % 1017,7 hPa 0,0 l/m 3,4 km/h (1 Bft) N-NO -4,2 C -3,4 C
13.12.2012 04:00 -2,9 C 91 % 1017,5 hPa 0,0 l/m 3,7 km/h (1 Bft) N-NO -4,2 C -4,0 C
13.12.2012 05:00 -3,0 C 91 % 1017,2 hPa 0,0 l/m 4,1 km/h (1 Bft) N-NO -4,2 C -4,1 C
13.12.2012 06:00 -2,9 C 91 % 1016,9 hPa 0,0 l/m 3,3 km/h (1 Bft) N-NO -4,2 C -3,7 C
13.12.2012 07:00 -2,7 C 91 % 1016,9 hPa 0,0 l/m 4,4 km/h (1 Bft) N-NO -4,0 C -3,9 C
13.12.2012 08:00 -2,6 C 91 % 1016,9 hPa 0,0 l/m 4,6 km/h (1 Bft) N-NO -3,9 C -4,0 C
13.12.2012 09:00 -2,2 C 90 % 1016,9 hPa 0,0 l/m 4,7 km/h (1 Bft) N-NO -3,6 C -3,7 C
13.12.2012 10:00 -1,3 C 89 % 1016,8 hPa 0,0 l/m 4,3 km/h (1 Bft) N-NO -2,9 C -2,3 C
13.12.2012 11:00 -1,0 C 87 % 1016,5 hPa 0,0 l/m 4,0 km/h (1 Bft) N-NO -2,8 C -1,8 C
13.12.2012 12:00 -1,0 C 86 % 1016,0 hPa 0,0 l/m 4,5 km/h (1 Bft) N-NO -3,1 C -2,0 C
13.12.2012 13:00 -1,2 C 85 % 1015,3 hPa 0,0 l/m 5,2 km/h (1 Bft) N-NO -3,4 C -2,7 C
13.12.2012 14:00 -1,5 C 85 % 1015,0 hPa 0,0 l/m 5,2 km/h (1 Bft) N-NO -3,6 C -2,9 C
13.12.2012 15:00 -2,0 C 87 % 1014,8 hPa 0,0 l/m 7,5 km/h (2 Bft) N-NO -3,9 C -4,5 C
13.12.2012 16:00 -2,3 C 89 % 1014,6 hPa 0,0 l/m 8,7 km/h (2 Bft) N-NO -4,0 C -5,6 C
13.12.2012 17:00 -2,5 C 89 % 1014,1 hPa 0,0 l/m 9,3 km/h (2 Bft) N-NO -4,0 C -5,8 C
13.12.2012 18:00 -2,8 C 89 % 1013,7 hPa 0,0 l/m 5,8 km/h (2 Bft) N-NO -4,3 C -4,7 C
13.12.2012 19:00 -3,3 C 90 % 1013,1 hPa 0,0 l/m 9,8 km/h (2 Bft) N-NO -4,7 C -7,1 C
13.12.2012 20:00 -4,0 C 90 % 1012,8 hPa 0,0 l/m 8,0 km/h (2 Bft) N-NO -5,3 C -7,1 C
13.12.2012 21:00 -4,2 C 91 % 1012,8 hPa 0,0 l/m 7,2 km/h (2 Bft) N-NO -5,4 C -6,8 C
13.12.2012 22:00 -3,9 C 91 % 1012,5 hPa 0,0 l/m 9,5 km/h (2 Bft) N-NO -5,2 C -7,7 C
13.12.2012 23:00 -3,8 C 90 % 1012,1 hPa 0,0 l/m 8,8 km/h (2 Bft) N-NO -5,2 C -7,4 C
14.12.2012 00:00 -4,1 C 90 % 1011,9 hPa 0,0 l/m 7,7 km/h (2 Bft) N-NO -5,5 C -7,2 C
14.12.2012 01:00 -4,4 C 90 % 1011,7 hPa 0,0 l/m 7,0 km/h (2 Bft) N-NO -5,8 C -7,0 C
14.12.2012 02:00 -4,6 C 90 % 1011,6 hPa 0,0 l/m 6,9 km/h (2 Bft) N-NO -5,9 C -7,3 C
14.12.2012 03:00 -4,7 C 90 % 1011,3 hPa 0,0 l/m 7,0 km/h (2 Bft) N-NO -6,1 C -7,5 C
14.12.2012 04:00 -4,5 C 89 % 1010,5 hPa 0,0 l/m 5,6 km/h (1 Bft) N-NO -6,0 C -6,6 C
14.12.2012 05:00 -4,1 C 89 % 1010,4 hPa 0,0 l/m 8,1 km/h (2 Bft) N-NO -5,6 C -7,3 C
14.12.2012 06:00 -3,2 C 89 % 1010,0 hPa 0,0 l/m 7,7 km/h (2 Bft) N-NO -4,8 C -6,1 C
14.12.2012 07:00 -2,7 C 89 % 1010,2 hPa 0,0 l/m 8,5 km/h (2 Bft) N-NO -4,3 C -5,7 C
14.12.2012 08:00 -2,5 C 89 % 1010,4 hPa 0,0 l/m 8,3 km/h (2 Bft) N-NO -4,1 C -5,6 C
14.12.2012 09:00 -2,2 C 89 % 1010,2 hPa 0,0 l/m 7,0 km/h (2 Bft) N-NO -3,7 C -4,4 C
14.12.2012 10:00 -1,4 C 89 % 1010,0 hPa 0,0 l/m 7,9 km/h (2 Bft) N-NO -3,1 C -4,1 C
14.12.2012 11:00 -0,7 C 87 % 1009,6 hPa 0,0 l/m 7,2 km/h (2 Bft) N-NO -2,6 C -3,0 C
14.12.2012 12:00 -0,4 C 87 % 1009,0 hPa 0,0 l/m 9,1 km/h (2 Bft) N-NO -2,4 C -3,4 C
14.12.2012 13:00 -0,1 C 86 % 1008,3 hPa 0,0 l/m 7,7 km/h (2 Bft) NO -2,2 C -2,6 C
14.12.2012 14:00 -0,5 C 86 % 1007,9 hPa 0,0 l/m 7,1 km/h (2 Bft) NO -2,5 C -2,7 C
14.12.2012 15:00 -1,0 C 87 % 1007,3 hPa 0,0 l/m 8,3 km/h (2 Bft) NO -2,9 C -3,9 C
14.12.2012 16:00 -1,7 C 87 % 1006,5 hPa 0,0 l/m 12,4 km/h (3 Bft) NO -3,5 C -5,8 C
14.12.2012 17:00 -1,9 C 88 % 1005,6 hPa 0,0 l/m 10,9 km/h (2 Bft) NO -3,7 C -5,8 C
14.12.2012 18:00 -1,5 C 87 % 1004,7 hPa 0,0 l/m 10,5 km/h (2 Bft) NO -3,4 C -5,1 C
14.12.2012 19:00 -1,3 C 86 % 1003,7 hPa 0,0 l/m 10,3 km/h (2 Bft) NO -3,3 C -4,6 C
14.12.2012 20:00 -1,0 C 86 % 1002,6 hPa 0,0 l/m 9,8 km/h (2 Bft) NO -3,1 C -4,3 C
14.12.2012 21:00 -0,7 C 86 % 1001,5 hPa 0,0 l/m 12,8 km/h (3 Bft) NO -2,8 C -4,7 C
14.12.2012 22:00 -0,4 C 85 % 1001,2 hPa 0,0 l/m 10,2 km/h (2 Bft) NO -2,7 C -3,5 C
14.12.2012 23:00 -0,0 C 87 % 1000,2 hPa 0,0 l/m 13,0 km/h (3 Bft) NO -2,0 C -3,8 C
15.12.2012 00:00 0,4 C 88 % 999,4 hPa 0,0 l/m 14,7 km/h (3 Bft) NO -1,3 C -3,7 C
15.12.2012 01:00 0,7 C 90 % 999,1 hPa 0,0 l/m 9,1 km/h (2 Bft) NO -0,7 C -2,0 C
15.12.2012 02:00 1,0 C 91 % 998,6 hPa 0,0 l/m 11,0 km/h (2 Bft) SO -0,3 C -2,2 C
15.12.2012 03:00 1,3 C 92 % 998,3 hPa 0,0 l/m 10,8 km/h (2 Bft) S-SO 0,1 C -1,7 C
15.12.2012 04:00 1,6 C 93 % 998,4 hPa 0,0 l/m 10,5 km/h (2 Bft) S-SO 0,5 C -1,3 C
15.12.2012 05:00 1,9 C 93 % 998,4 hPa 0,0 l/m 7,1 km/h (2 Bft) S-SO 0,8 C 0,2 C
15.12.2012 06:00 2,0 C 93 % 998,5 hPa 0,0 l/m 5,7 km/h (1 Bft) S-SO 1,0 C 0,5 C
15.12.2012 07:00 2,1 C 93 % 999,2 hPa 0,0 l/m 5,0 km/h (1 Bft) S 1,1 C 1,2 C
15.12.2012 08:00 2,1 C 93 % 999,6 hPa 0,0 l/m 4,5 km/h (1 Bft) S-SO 1,1 C 1,3 C
15.12.2012 09:00 2,4 C 94 % 1000,1 hPa 0,0 l/m 5,4 km/h (1 Bft) S 1,5 C 1,3 C
15.12.2012 10:00 2,8 C 94 % 1001,1 hPa 0,0 l/m 8,7 km/h (2 Bft) S-SW 2,0 C 0,6 C
15.12.2012 11:00 3,3 C 93 % 1001,2 hPa 0,0 l/m 6,4 km/h (2 Bft) SW 2,3 C 2,0 C
15.12.2012 12:00 3,4 C 93 % 1001,5 hPa 0,5 l/m 6,9 km/h (2 Bft) S-SW 2,4 C 1,9 C
15.12.2012 13:00 3,5 C 93 % 1001,6 hPa 0,0 l/m 5,2 km/h (1 Bft) S 2,5 C 2,6 C
15.12.2012 14:00 3,6 C 92 % 1002,2 hPa 0,0 l/m 4,3 km/h (1 Bft) S-SW 2,4 C 3,0 C
15.12.2012 15:00 3,1 C 92 % 1002,7 hPa 0,5 l/m 5,5 km/h (1 Bft) SW 2,0 C 2,0 C
15.12.2012 16:00 2,7 C 93 % 1003,4 hPa 0,0 l/m 2,8 km/h (1 Bft) S 1,7 C 2,5 C
15.12.2012 17:00 2,4 C 93 % 1003,9 hPa 0,0 l/m 2,7 km/h (1 Bft) S-SW 1,4 C 2,0 C
15.12.2012 18:00 1,9 C 93 % 1004,3 hPa 0,0 l/m 4,7 km/h (1 Bft) S-SW 0,9 C 1,0 C
15.12.2012 19:00 1,9 C 93 % 1004,6 hPa 0,0 l/m 3,2 km/h (1 Bft) S-SO 0,9 C 1,4 C
15.12.2012 20:00 2,2 C 94 % 1005,1 hPa 0,0 l/m 3,7 km/h (1 Bft) S-SO 1,3 C 1,7 C
15.12.2012 21:00 2,5 C 94 % 1005,3 hPa 0,0 l/m 3,9 km/h (1 Bft) S-SW 1,6 C 1,8 C
15.12.2012 22:00 2,7 C 94 % 1005,5 hPa 0,0 l/m 3,0 km/h (1 Bft) S-SW 1,8 C 2,5 C
15.12.2012 23:00 2,6 C 94 % 1005,6 hPa 0,0 l/m 4,7 km/h (1 Bft) S-SW 1,8 C 1,9 C
16.12.2012 00:00 2,8 C 94 % 1005,6 hPa 0,0 l/m 3,2 km/h (1 Bft) S 1,9 C 2,4 C
16.12.2012 01:00 2,9 C 94 % 1005,6 hPa 0,0 l/m 2,5 km/h (1 Bft) S-SO 2,0 C 2,8 C
16.12.2012 02:00 2,9 C 94 % 1005,5 hPa 0,0 l/m 3,8 km/h (1 Bft) S 2,0 C 2,4 C
16.12.2012 03:00 2,9 C 94 % 1005,2 hPa 0,0 l/m 3,4 km/h (1 Bft) S 2,0 C 2,7 C
16.12.2012 04:00 2,9 C 94 % 1005,1 hPa 0,0 l/m 2,4 km/h (1 Bft) S-SO 2,0 C 2,7 C
16.12.2012 05:00 2,8 C 94 % 1004,9 hPa 0,0 l/m 2,8 km/h (1 Bft) S-SO 1,9 C 2,7 C
16.12.2012 06:00 2,8 C 94 % 1004,9 hPa 0,0 l/m 2,6 km/h (1 Bft) S-SO 2,0 C 2,6 C
16.12.2012 07:00 2,7 C 94 % 1004,8 hPa 0,0 l/m 1,8 km/h (1 Bft) S-SO 1,8 C 2,6 C
16.12.2012 08:00 2,8 C 94 % 1005,0 hPa 0,0 l/m 4,4 km/h (1 Bft) S-SW 1,9 C 1,9 C
16.12.2012 09:00 2,9 C 94 % 1005,3 hPa 0,0 l/m 5,4 km/h (1 Bft) S-SW 2,0 C 1,7 C
16.12.2012 10:00 3,1 C 94 % 1005,5 hPa 0,0 l/m 7,4 km/h (2 Bft) S-SW 2,3 C 1,3 C
16.12.2012 11:00 3,3 C 94 % 1005,7 hPa 0,5 l/m 5,5 km/h (1 Bft) S-SW 2,5 C 2,2 C
16.12.2012 12:00 3,4 C 94 % 1005,6 hPa 0,0 l/m 4,8 km/h (1 Bft) S 2,5 C 2,5 C
16.12.2012 13:00 3,8 C 94 % 1005,5 hPa 0,0 l/m 6,0 km/h (2 Bft) S-SW 2,9 C 2,6 C
16.12.2012 14:00 4,0 C 94 % 1005,5 hPa 0,0 l/m 6,0 km/h (2 Bft) S 3,1 C 2,9 C
16.12.2012 15:00 3,8 C 93 % 1005,6 hPa 0,0 l/m 5,0 km/h (1 Bft) S-SW 2,9 C 3,0 C
16.12.2012 16:00 3,5 C 93 % 1005,6 hPa 0,0 l/m 5,9 km/h (2 Bft) S-SW 2,5 C 2,3 C
16.12.2012 17:00 3,4 C 94 % 1005,7 hPa 0,0 l/m 5,2 km/h (1 Bft) S-SW 2,5 C 2,4 C
16.12.2012 18:00 3,4 C 94 % 1005,9 hPa 0,0 l/m 4,0 km/h (1 Bft) S-SW 2,6 C 2,8 C
16.12.2012 19:00 3,5 C 94 % 1006,0 hPa 0,0 l/m 4,1 km/h (1 Bft) SW 2,6 C 2,8 C
16.12.2012 20:00 3,4 C 94 % 1005,9 hPa 0,5 l/m 4,0 km/h (1 Bft) S-SO 2,6 C 2,9 C
16.12.2012 21:00 3,7 C 94 % 1005,8 hPa 0,5 l/m 3,5 km/h (1 Bft) S-SO 2,8 C 3,4 C
16.12.2012 22:00 3,7 C 94 % 1005,9 hPa 0,5 l/m 3,2 km/h (1 Bft) S 2,9 C 3,2 C
16.12.2012 23:00 3,5 C 94 % 1005,9 hPa 0,0 l/m 2,6 km/h (1 Bft) S-SO 2,7 C 3,3 C
Min-Datum _ 12.12.12 12.12.12 15.12.12 - 10.12.12 - 12.12.12 12.12.12
_ Min-Zeit 05:06 00:26 03:51 - 01:06 - 05:06 05:01
Minimum _ -6,7 C 81 % 998,0 hPa - 0,0 km/h (0 Bft) - -8,5 C -11,0 C
Max-Datum _ 16.12.12 10.12.12 12.12.12 15.12.12 15.12.12 - 16.12.12 16.12.12
_ Max-Zeit 14:16 08:51 02:51 12:01 00:21 - 14:16 14:21
Maximum _ 4,1 C 94 % 1022,2 hPa 0,5 l/m 23,0 km/h
NO (4 Bft)
- 3,2 C 4,1 C
Durchschnitt _ -0,7 C 90 % 1011,0 hPa #3,1 l/m 5,3 km/h (1 Bft) N-NO -2,1 C -2,2 C
(c) by David Heller